Probability
0 0 0 0 0 0 0 0 0 0 0 0 0 0 0 0 0 0 0 0 0 0 0 0 0 0 0 0 0 0 0 0 0 0 0 0 0 0
0 0 0 0 0 0 0 0 0 0 0 0 0 0 0 0 0 0 0 0 0 0 0 0 0 0 0 0 0 0 0 0 0 0 0 0 0 0
0 0 0 0 0 0 0 0 0 0 0 0 0 0 0 0 0 0 0 0 0 0 0 0 0 0 0 0 0 0 0 0 0 0 0 0 0 0
0 0 0 0 0 0 0 0 0 0 0 0 0 0 0 0 0 0 0 0 0 0 0 0 0 0 0 0 0 0 0 0 0 0 0 0 0 0
0 0 0 0 0 0 0 0 0 0 0 0 0 0 0 0 0 0 0 0 0 0 0 0 0 0 0 0 0 0 0 0 0 0 0 0 0 0
0 0 0 0 0 0 0 0 0 0 0 0 0 0 0 0 0 0 0 0 0 0 0 0 0 0 0 0 0 0 0 0 0 0 0 0 0 0
0 0 0 0 0 0 0 0 0 0 0 0 0 0 0 0 0 0 0 0 0 0 0 0 0 0 0 0 0 0 0 0 0 0 0 0 0 0
0 0 0 0 0 0 0 0 0 0 0 0 0 0 0 0 0 0 0 0 0 0 0 0 0 0 0 0 0 0 0 0 0 0 0 0 0 0
0 0 0 0 0 0 0 0 0 0 0 0 0 0 0 0 0 0 0 0 0 0 0 0 0 0 0 0 0 0 0 0 0 0 0 0 0 0
0 0 0 0 0 0 0 0 0 0 0 0 0 0 0 0 0 0 0 0 0 0 0 0 0 0 0 0 0 0 0 0 0 0 0 0 0 0
0 0 0 0 0 0 0 0 0 0 0 0 0 0 0 0 0 0 0 0 0 0 0 0 0 0 0 0 0 0 0 0 0 0 0 0 0 0
0 0 0 0 0 0 0 0 0 0 0 0 0 0 0 0 0 0 0 0 0 0 0 0 0 0 0 0 0 0 0 0 0 0 0 0 0 0
0 0 0 0 0 0 0 0 0 0 0 0 0 0 0 0 0 0 0 0 0 0 0 0 0 0 0 0 0 0 0 0 0 0 0 0 0 0
0 0 0 0 0 0 0 0 0 0 0 0 0 0 0 0 0 0 0 0 0 0 0 0 0 0 0 0 0 0 0 0 0 0 0 0 0 0
0 0 0 0 0 0 0 0 0 0 0 0 0 0 0 0 0 0 0 0 0 0 0 0 0 0 0 0 0 0 0 0 0 0 0 0 0 0
0 0 0 0 0 0 0 0 0 0 0 0 0 0 0 0 0 0 0 0 0 0 0 0 0 0 0 0 0 0 0 0 0 0 0 0 0 0
0 0 0 0 0 0 0 0 0 0 0 0 0 0 0 0 0 0 0 0 0 0 0 0 0 0 0 0 0 0 0 0 0 0 0 0 0 0
0 0 0 0 0 0 0 0 0 0 0 0 0 0 0 0 0 0 0 0 0 0 0 0 0 0 0 0 0 0 0 0 0 0 0 0 0 0
0 0 0 0 0 0 0 0 0 0 0 0 0 0 0 0 0 0 0 0 0 0 0 0 0 0 0 0 0 0 0 0 0 0 0 0 0 0
0 0 0 0 0 0 0 0 0 0 0 0 0 0 0 0 0 0 0 0 0 0 0 0 0 0 0 0 0 0 0 0 0 0 0 0 0 0
0 0 0 0 0 0 0 0 0 0 0 0 0 0 0 0 0 0 0 0 0 0 0 0 0 0 0 0 0 0 0 0 0 0 0 0 0 0
0 0 0 0 0 0 0 0 0 0 0 0 0 0 0 0 0 0 0 0 0 0 0 0 0 0 0 0 0 0 0 0 0 0 0 0 0 0
0 0 0 0 0 0 0 0 0 0 0 0 0 0 0 0 0 0 0 0 0 0 0 0 0 0 0 0 0 0 0 0 0 0 0 0 0 0
Height
5714 5711 5708 5705 5701 5697 5693 5688 5685 5682 5679 5674 5668 5662 5656 5651 5645 5639 5633 5626 5620 5613 5606 5600 5593 5587 5581 5574 5568 5562 5557 5551 5547 5542 5537 5533 5529 5525
5706 5703 5700 5696 5692 5688 5684 5679 5675 5671 5667 5663 5657 5652 5646 5640 5634 5628 5622 5615 5608 5601 5594 5587 5580 5573 5566 5560 5554 5549 5543 5538 5533 5529 5524 5519 5515 5510
5697 5694 5691 5688 5684 5680 5675 5671 5666 5661 5657 5653 5647 5641 5636 5630 5624 5618 5611 5604 5597 5589 5581 5574 5567 5560 5553 5547 5542 5536 5531 5526 5521 5516 5511 5506 5502 5498
5688 5685 5682 5679 5675 5671 5667 5662 5657 5652 5647 5643 5638 5632 5626 5620 5614 5608 5600 5593 5585 5578 5569 5562 5555 5548 5541 5536 5530 5525 5520 5514 5510 5505 5500 5495 5490 5486
5679 5677 5674 5670 5666 5662 5658 5653 5648 5642 5637 5632 5627 5622 5616 5610 5604 5598 5590 5582 5574 5566 5558 5551 5544 5537 5531 5525 5520 5515 5510 5504 5500 5494 5489 5484 5479 5475
5670 5667 5665 5661 5657 5653 5649 5644 5639 5633 5627 5622 5617 5612 5606 5599 5593 5587 5581 5573 5565 5556 5548 5541 5535 5528 5522 5516 5511 5506 5500 5495 5490 5484 5479 5475 5470 5465
5661 5658 5655 5652 5648 5643 5639 5634 5629 5623 5618 5612 5607 5601 5596 5589 5583 5577 5570 5563 5555 5547 5541 5534 5527 5521 5514 5508 5503 5497 5492 5487 5481 5476 5471 5467 5462 5457
5652 5649 5646 5642 5638 5634 5629 5624 5619 5613 5608 5602 5596 5590 5585 5578 5572 5565 5558 5553 5547 5541 5533 5527 5519 5513 5506 5500 5495 5490 5484 5479 5474 5469 5464 5459 5455 5450
5642 5640 5637 5633 5629 5625 5620 5614 5609 5602 5597 5592 5586 5580 5574 5568 5562 5556 5549 5542 5536 5530 5524 5519 5513 5506 5499 5493 5488 5483 5478 5472 5467 5463 5458 5453 5448 5444
5633 5630 5627 5623 5619 5615 5610 5605 5599 5594 5588 5582 5576 5570 5564 5557 5551 5546 5540 5535 5529 5522 5516 5511 5506 5500 5493 5487 5481 5476 5472 5467 5462 5457 5452 5448 5444 5440
5623 5620 5617 5613 5609 5605 5600 5596 5590 5584 5578 5572 5566 5560 5554 5548 5543 5538 5532 5527 5523 5517 5510 5504 5499 5494 5488 5482 5477 5471 5466 5462 5457 5452 5448 5443 5440 5436
5613 5610 5607 5603 5598 5594 5590 5585 5581 5576 5570 5564 5558 5552 5546 5541 5535 5530 5525 5520 5515 5510 5504 5498 5492 5487 5483 5478 5472 5467 5462 5457 5453 5448 5444 5439 5435 5432
5603 5600 5596 5592 5588 5584 5579 5575 5570 5566 5560 5555 5550 5545 5539 5534 5529 5524 5518 5513 5507 5502 5497 5491 5487 5481 5476 5472 5469 5463 5458 5454 5449 5445 5441 5436 5432 5428
5592 5589 5585 5582 5578 5574 5570 5565 5561 5556 5551 5546 5542 5537 5532 5527 5523 5518 5512 5507 5501 5496 5490 5485 5481 5476 5471 5467 5464 5460 5455 5451 5446 5442 5438 5434 5430 5426
5581 5578 5575 5572 5568 5564 5560 5556 5552 5547 5543 5538 5534 5529 5525 5521 5516 5512 5507 5502 5496 5490 5485 5480 5476 5472 5467 5463 5460 5456 5452 5448 5444 5439 5436 5432 5428 5425
5571 5568 5565 5562 5558 5555 5551 5547 5543 5539 5534 5531 5526 5522 5519 5515 5511 5506 5502 5497 5492 5487 5482 5477 5472 5468 5464 5460 5456 5452 5449 5445 5441 5438 5434 5431 5427 5423
5562 5559 5556 5553 5550 5546 5543 5539 5535 5531 5527 5523 5520 5516 5513 5509 5505 5501 5496 5492 5487 5483 5479 5474 5470 5465 5462 5458 5454 5450 5447 5443 5440 5436 5434 5431 5427 5423
5553 5550 5547 5544 5541 5538 5535 5531 5527 5524 5520 5517 5513 5510 5507 5503 5500 5495 5491 5487 5483 5479 5475 5471 5467 5464 5461 5457 5453 5449 5445 5442 5439 5436 5433 5430 5428 5425
5544 5541 5539 5536 5533 5530 5526 5523 5520 5517 5513 5510 5508 5505 5501 5498 5494 5490 5487 5483 5479 5475 5471 5467 5464 5461 5458 5456 5452 5447 5444 5442 5439 5436 5433 5430 5428 5425
5535 5533 5531 5528 5525 5522 5519 5516 5513 5510 5507 5505 5502 5499 5496 5493 5489 5485 5482 5478 5475 5472 5469 5465 5462 5459 5456 5454 5451 5448 5444 5441 5438 5436 5434 5431 5429 5427
5527 5525 5523 5520 5518 5515 5512 5509 5506 5504 5501 5499 5496 5493 5490 5487 5484 5481 5477 5474 5472 5469 5466 5464 5461 5458 5455 5453 5450 5448 5445 5442 5439 5437 5434 5433 5431 5429
5519 5517 5515 5513 5511 5508 5506 5503 5500 5498 5495 5493 5491 5488 5485 5482 5479 5477 5474 5472 5469 5467 5464 5462 5459 5457 5455 5453 5450 5448 5446 5444 5441 5438 5436 5434 5432 5430
5511 5509 5507 5506 5504 5502 5499 5497 5494 5492 5490 5488 5486 5483 5481 5478 5476 5474 5472 5469 5467 5465 5463 5461 5459 5457 5455 5453 5451 5449 5447 5446 5443 5441 5439 5436 5434 5432
Wind_Speed
41 41 41 42 42 43 44 44 45 44 44 45 46 47 47 48 50 50 51 52 52 53 54 55 55 56 56 56 55 54 51 49 48 47 46 46 47 47
40 40 41 41 42 42 43 44 45 45 45 46 47 47 47 48 49 50 51 51 52 53 54 55 55 55 54 53 51 48 47 46 45 45 45 45 44 44
40 40 40 40 41 42 43 44 45 46 46 46 47 47 47 48 48 49 50 51 51 52 53 53 53 52 51 48 46 45 43 43 43 43 43 42 42 42
39 39 40 40 41 42 43 44 46 47 47 46 46 47 47 47 48 49 49 50 51 52 52 51 50 48 47 45 44 42 41 41 41 41 42 42 41 40
39 39 40 41 42 43 44 45 46 47 47 47 47 47 47 48 49 49 49 50 51 51 50 49 47 45 43 42 41 41 40 40 39 39 39 39 38 37
40 40 41 42 43 43 44 45 46 47 47 47 47 47 48 48 49 49 49 50 50 49 47 45 44 42 41 40 40 39 39 38 37 36 35 35 34 34
40 41 41 42 43 44 45 47 47 47 47 47 47 48 49 49 49 49 50 49 47 45 42 42 41 41 40 39 38 37 36 35 34 33 32 32 32 31
40 41 42 43 44 45 47 47 47 47 47 48 48 49 49 49 49 49 49 46 43 41 40 39 39 39 39 38 37 36 35 34 33 32 32 31 30 29
40 41 42 43 44 45 46 46 47 47 47 48 48 48 48 48 48 47 45 42 40 39 38 37 38 38 36 36 35 34 33 32 31 30 30 29 28 26
41 42 43 44 44 45 45 45 46 46 46 47 47 47 46 46 45 43 40 38 38 38 38 37 36 35 34 34 32 31 30 29 28 27 27 26 25 24
41 42 43 44 45 45 45 45 45 45 45 45 46 45 44 43 41 39 37 36 36 36 36 36 34 32 32 32 30 29 28 27 26 25 25 25 24 22
42 42 43 44 44 44 45 45 44 44 43 43 43 42 41 39 37 36 35 36 36 35 34 34 32 30 28 28 28 26 26 26 25 24 24 24 23 21
42 43 43 44 44 44 44 44 44 43 42 42 41 39 38 35 34 34 34 35 35 34 33 31 30 29 28 26 25 23 23 23 23 22 22 22 20 19
42 43 43 43 43 43 42 42 42 42 41 40 38 37 34 33 32 33 33 34 34 32 31 30 29 28 26 24 22 21 22 22 21 20 19 19 18 17
42 42 42 42 41 41 40 40 41 40 39 37 35 33 31 31 30 31 31 31 31 30 29 29 27 26 24 23 21 20 21 20 19 18 17 17 16 15
39 39 39 39 39 39 39 39 39 38 36 34 32 30 29 28 29 29 29 29 29 28 27 26 26 24 22 21 20 20 20 19 17 15 15 16 16 14
37 37 37 37 37 37 37 37 36 34 32 31 29 28 27 27 28 28 27 27 27 26 24 23 23 22 20 20 19 19 18 17 15 15 15 15 14 13
35 35 35 35 35 35 34 33 33 31 30 28 27 26 26 26 27 26 25 26 25 24 22 21 20 19 18 18 17 16 16 15 15 14 14 13 13 12
33 33 33 33 32 32 31 30 30 29 28 26 25 25 26 26 25 24 24 24 23 21 20 19 19 18 16 15 15 14 14 13 13 13 13 12 12 11
31 31 31 30 29 29 29 29 28 28 26 25 24 25 25 25 24 23 23 22 20 19 17 17 17 16 14 14 13 12 12 12 12 11 11 11 11 11
29 29 29 28 28 28 28 28 27 26 25 24 24 24 24 24 23 21 20 18 18 17 15 14 14 14 13 13 12 11 11 11 11 11 11 11 10 10
28 27 27 27 27 27 27 27 26 25 24 23 23 23 22 21 19 17 16 15 15 15 13 12 12 12 11 10 10 10 10 11 11 11 11 11 11 11
27 26 26 26 26 26 26 25 23 22 21 21 21 20 19 17 15 14 14 13 13 12 11 11 10 10 9 8 8 9 10 11 11 11 11 11 11 13
Wind_Direction
290 292 294 296 297 299 301 302 303 303 303 304 304 304 303 303 303 304 305 304 304 304 304 303 303 302 301 300 300 300 299 297 295 294 294 293 291 289
290 291 294 296 298 300 301 303 304 305 305 305 305 305 305 305 306 307 307 306 306 306 306 305 304 304 303 302 302 301 300 299 297 296 296 295 293 290
289 291 293 296 298 300 302 303 304 305 306 306 306 307 307 307 308 309 309 308 308 308 307 306 306 305 305 304 303 302 301 299 298 298 298 297 295 293
289 291 293 296 298 300 301 303 304 305 306 306 306 307 307 308 308 309 310 310 310 310 310 308 307 307 307 306 304 304 303 302 301 300 300 299 297 295
288 290 293 296 298 300 301 303 305 306 306 306 307 307 307 308 308 310 311 311 311 312 311 310 310 309 308 307 306 305 305 306 305 304 303 302 300 298
288 290 293 295 298 299 301 303 305 306 306 306 307 307 307 307 308 310 311 311 311 312 311 311 312 312 311 309 309 309 309 309 309 307 306 305 304 303
289 291 293 295 297 299 301 303 304 305 306 307 306 306 306 307 308 309 310 312 312 312 312 312 313 313 312 310 310 311 312 311 311 310 309 309 308 307
289 292 294 295 298 300 302 303 304 305 306 307 307 307 308 308 309 310 312 313 312 312 313 314 314 315 314 312 312 312 312 312 313 312 312 311 311 310
289 291 293 296 298 300 302 303 305 306 307 307 308 309 309 309 310 312 313 314 315 315 315 316 316 316 315 315 314 314 314 315 316 316 317 315 315 313
289 291 294 297 299 301 302 303 305 306 307 307 308 309 310 311 312 313 314 315 317 318 318 318 317 317 317 317 317 317 317 318 319 320 320 320 319 318
289 291 294 297 299 300 302 303 305 306 306 307 308 309 310 312 313 314 315 316 318 318 318 318 319 319 318 319 319 320 321 322 322 321 321 321 321 321
290 292 295 297 299 301 302 303 305 305 306 307 308 309 310 311 312 314 316 317 318 319 319 320 320 320 320 320 321 321 323 324 324 324 324 324 323 324
290 292 294 296 298 300 301 302 304 305 306 306 307 308 309 309 311 314 315 318 320 321 322 323 323 322 323 324 324 324 327 328 326 326 327 327 326 327
291 292 294 296 298 299 300 302 303 304 305 306 306 307 308 308 310 313 316 319 322 323 324 324 325 326 326 327 328 328 329 330 330 331 331 330 328 328
291 292 294 295 297 298 299 302 304 305 305 305 306 307 307 309 312 314 317 321 324 324 325 327 328 330 331 331 332 333 333 333 334 335 336 336 335 335
291 293 294 295 296 298 299 302 304 304 304 305 306 306 306 309 312 314 317 321 323 324 325 327 329 331 332 333 335 336 336 337 338 338 342 345 345 345
291 292 293 295 296 297 299 301 303 303 303 304 304 305 307 309 312 314 317 319 322 323 324 327 328 330 332 334 335 335 338 341 344 344 346 349 353 359
290 292 293 295 297 298 299 300 302 303 303 303 303 305 307 310 312 315 318 320 322 324 325 326 328 329 332 335 336 338 341 345 348 350 353 359 5 9
291 292 293 295 297 300 301 301 302 303 302 301 302 305 308 310 312 314 317 319 322 323 325 327 329 330 333 338 343 343 345 348 352 356 0 6 12 18
291 292 294 295 297 300 301 302 302 302 301 302 303 306 308 310 312 313 315 317 321 323 325 328 331 335 339 345 351 356 355 359 3 4 7 14 18 22
290 292 293 294 296 299 300 302 301 300 300 301 304 306 308 309 311 313 315 317 321 324 327 330 334 338 343 349 358 8 12 12 15 19 20 22 27 35
289 290 292 293 295 297 298 301 301 300 300 301 304 306 308 309 311 314 316 319 323 328 331 333 337 342 350 358 8 18 23 24 26 30 31 32 39 49
288 289 290 292 294 297 298 300 301 300 301 302 303 305 307 308 311 316 321 324 328 332 334 337 343 350 358 7 20 29 32 34 38 42 43 44 47 53